COSMOS 2247

Satellite information

Favourite Embed

Satellite Type and Status

PAYLOADIN ORBIT

Key statistics

Satellite COSMOS 2247 at a glance.

Uptime

11687

Days in orbit

Revolutions

≈ 12.6

Per day

Orbit

LEO

Low Earth Orbit

Inclination

82.6

Latest

Satellite identification and parameters

Extended collection of information and parameters for COSMOS 2247.

Object identification

Identified? True

Debris? False

Object name: COSMOS 2247

International designator: 1993-030C

Object number (NORAD): 22648

Object ID (CCSDS): 22648

Country: COMMONWEALTH OF INDEPENDENT STATES (CIS)

Current information (Y/N): Y

RCS size: LARGE

Orbital parameters

Period: 113.99 minutes

Inclination: 82.5821 deg

SMA: 7787.636 km

Apoapsis: 1416.801 km

Periapsis: 1402.201 km

RAAN: 213.8128 deg

Eccentricy: 0.0009374

Argument of periapsis: 130.691 deg

Mean anomaly: 351.5029 deg

Mean motion: 12.63264591 rev/day

Mean motion (dot): 0.00000013 rev/day2

B* drag term: 0.000013961 1/REarth

Two-line elements (TLE)

Creation date: May 10, 2025, 2:32 a.m.

Reference frame: TEME

Reference center: EARTH

Epoch: May 9, 2025, 6:45 p.m. UTC

TLE line 0: 0 COSMOS 2247

TLE line 1: 1 22648U 93030C 25129.78178021 .00000013 00000-0 13961-4 0 9998

TLE line 2: 2 22648 82.5821 213.8128 0009374 130.6910 351.5029 12.63264591475143

Live tracking on map

Real-time ground track for satellite COSMOS 2247.

In-orbit conjunctions

There are no conjunctions computed for COSMOS 2247, at the moment. Check back to stay up to date, as we update our databases every day.

Go to all conjunctions

Associated space launch

Second generation store-dump military communications satellite

COSMOS 2247 was lifted into orbit during the mission ‘Tsiklon-3 | Strela-3 89 to 94’, on board a Tsiklon-3 space rocket.

The launch took place on May 11, 1993, 2:56 p.m. from 32/1.

For more information about the launch, click the button.

Launch to space Tsiklon-3 | Strela-3 89 to 94
Tsiklon-3 | Strela-3 89 to 94

Agency: N/A

Status: Launch Successful

Launch date: May 11, 1993, 2:56 p.m. UTC

Rocket: Tsiklon-3

Launch pad: 32/1

Location: Plesetsk Cosmodrome, Russian Federation

...

Latest news about this satellite

There are no fresh news available about this satellite. Check back as we update our databases every day.


Newsletter sign-up

Weekly statistics, charts and insights to help you stay on top of the space industry.